Wind_Speed
22 20 22 22 20 23 24 25 31 35 36 38 36 34 35 33 31 29 29 29 28 30 35 31 27 28 25 25 25 24 25 20 20 17 17 19 21 23 21 21 20 19 19
20 19 22 23 24 21 24 25 27 32 37 37 37 36 33 32 29 30 30 32 32 33 32 34 28 30 27 28 29 28 25 24 21 19 17 17 17 19 24 18 19 22 19
16 19 19 20 17 22 22 25 26 28 34 36 34 33 33 31 30 30 31 33 34 32 31 31 36 31 33 30 33 32 32 24 23 26 18 11 16 14 13 14 11 15 18
15 15 12 14 13 14 13 20 24 26 29 31 33 35 34 34 32 31 30 28 30 32 31 34 35 38 31 33 29 30 32 30 25 22 26 28 19 10 17 17 17 13 14
24 17 12 14 10 11 10 12 15 23 25 29 34 31 35 29 26 28 29 30 29 33 32 34 35 35 39 31 33 30 32 32 31 27 22 20 20 25 20 23 21 20 20
27 23 21 20 18 17 4 6 10 13 21 23 25 32 32 36 32 29 23 25 26 28 31 31 34 36 38 39 37 36 35 38 35 33 30 27 22 20 20 23 24 24 25
25 27 30 31 27 27 23 16 11 4 0 16 23 23 27 27 26 27 27 28 30 30 28 31 34 36 38 39 38 41 42 43 42 41 39 36 32 27 24 22 22 21 22
26 29 30 32 33 38 35 31 24 11 5 4 8 22 21 23 22 20 23 26 23 24 21 28 38 38 37 38 39 40 41 42 44 44 43 42 40 39 38 33 27 26 27
24 27 29 38 38 40 41 41 38 35 22 13 7 4 18 21 20 17 17 18 22 22 20 24 26 24 28 36 38 41 43 42 40 43 43 42 40 37 33 35 33 32 23
22 25 28 29 37 41 38 35 35 36 35 33 20 17 13 4 13 21 22 24 25 26 27 25 27 30 23 24 27 33 35 38 39 38 38 39 40 38 36 37 35 32 28
15 23 25 26 29 36 33 36 34 31 30 29 28 27 25 23 18 11 2 7 21 27 28 27 28 27 26 25 28 32 35 33 35 36 37 36 33 36 37 36 34 31 30
15 17 22 24 28 31 34 31 29 31 30 25 23 21 19 20 20 18 19 15 11 4 12 25 30 28 28 29 30 31 32 31 31 33 35 34 34 33 34 36 35 39 42
14 17 14 18 20 23 26 29 28 26 27 26 25 22 22 20 17 17 17 15 13 12 10 10 2 5 18 24 28 31 28 28 24 22 21 25 28 33 35 36 37 38 37
19 20 19 18 17 17 18 21 26 28 26 24 25 24 23 21 19 17 14 13 13 12 11 10 9 9 7 6 7 16 20 26 29 28 29 30 34 37 38 40 42 41 40
19 20 20 18 18 18 19 20 20 24 26 27 25 24 22 22 22 20 19 17 13 13 12 12 10 10 11 10 8 9 11 12 14 19 23 27 33 39 34 31 35 30 31
18 19 18 18 18 19 19 20 21 22 24 22 24 23 22 22 21 20 20 22 22 19 16 16 15 13 13 13 13 12 13 12 14 13 15 19 24 26 29 32 34 35 38
16 17 19 19 19 19 20 21 24 22 19 19 19 19 19 19 21 20 22 22 23 25 26 23 21 20 19 18 19 19 17 18 17 17 16 17 14 19 20 22 27 32 35
18 18 19 21 22 21 20 20 20 20 20 18 17 19 21 21 24 23 21 21 21 22 26 29 29 26 23 22 25 23 23 23 22 21 21 21 20 19 23 23 25 23 24
20 19 19 19 19 19 20 21 21 20 19 19 19 19 20 22 22 26 28 26 23 22 22 22 25 27 29 27 25 26 27 28 28 26 24 24 24 23 25 26 27 29 29
18 20 21 20 19 19 18 18 17 18 18 20 19 20 20 19 19 21 22 22 23 25 24 26 25 27 28 25 25 26 29 31 31 30 27 25 25 25 25 29 28 33 33
19 19 18 18 17 15 16 16 16 15 18 20 20 19 19 20 20 21 22 23 23 26 28 29 29 29 27 26 23 26 26 27 32 32 30 28 27 30 27 28 27 28 29
18 17 16 15 15 15 15 15 16 18 20 21 23 23 22 21 21 22 24 25 27 28 30 32 33 31 30 28 27 29 31 32 33 34 34 32 31 34 31 30 28 28 28
16 15 14 14 15 16 16 17 18 18 19 20 22 24 26 26 22 25 25 27 27 28 30 30 32 35 32 30 28 27 29 28 29 32 33 36 37 36 35 32 31 29 28
14 15 15 15 17 17 17 18 19 20 20 21 22 22 23 27 29 31 30 28 29 28 28 30 31 32 32 31 28 26 26 27 27 28 30 33 37 38 35 35 32 30 27
13 15 16 18 20 20 20 19 20 21 22 24 23 23 25 27 28 29 27 29 29 28 31 31 32 34 35 32 31 32 33 31 32 33 36 38 37 37 33 32 31 30 25
14 16 17 19 21 22 22 21 21 20 22 26 27 29 31 32 32 34 34 31 30 31 32 34 33 33 33 30 29 28 28 28 27 31 33 35 33 36 35 30 29 27 24
Wind_Direction
275 278 267 261 251 244 234 221 217 215 215 215 213 211 214 212 217 214 218 220 223 225 222 220 223 220 220 219 226 223 218 226 227 233 244 249 255 259 256 252 253 253 256
283 286 280 262 253 247 239 225 221 217 217 217 216 216 216 221 222 222 220 221 224 230 230 221 218 229 223 223 220 226 223 229 226 227 239 250 259 260 263 253 250 248 248
297 288 279 274 275 246 239 230 225 220 217 215 218 219 217 221 224 223 225 226 225 229 228 227 228 221 233 226 231 224 230 225 231 232 224 240 244 258 265 236 249 245 248
311 294 300 286 280 285 255 238 231 225 222 217 216 217 218 217 221 225 228 228 231 227 229 231 234 225 226 233 229 233 231 232 226 235 236 234 238 271 254 250 254 244 245
16 16 6 9 14 353 303 271 242 227 222 221 217 219 219 223 224 232 230 235 230 238 230 231 232 231 225 229 234 227 234 227 234 223 233 246 244 244 252 260 252 258 258
23 29 29 28 27 11 23 12 272 232 226 223 230 224 228 225 224 226 222 231 236 230 238 229 231 233 233 231 231 234 229 241 236 238 224 233 235 234 232 243 250 251 246
29 35 37 36 34 37 33 43 76 168 347 218 228 235 232 235 232 230 234 235 240 227 221 235 228 232 235 233 235 236 242 241 242 242 240 235 233 242 244 248 253 255 247
21 33 30 26 26 38 43 42 43 69 145 153 177 208 222 234 240 239 238 237 240 256 259 243 241 237 233 239 241 242 245 247 244 248 246 243 240 237 240 234 236 249 258
15 21 25 34 35 38 48 50 52 60 64 59 68 146 210 218 220 216 219 231 236 242 245 254 258 255 240 237 240 243 242 242 247 247 249 246 243 240 239 243 242 243 239
13 21 24 21 27 31 37 44 51 51 57 59 65 57 46 78 231 234 231 231 232 230 232 239 249 253 255 245 244 243 244 235 236 240 244 246 248 244 241 242 245 245 245
8 20 25 26 19 17 18 26 34 40 44 46 50 55 59 58 56 68 119 230 237 237 235 234 230 236 242 242 240 238 239 241 238 239 243 246 245 237 241 239 237 234 240
27 34 19 24 27 19 16 20 18 20 26 28 30 32 43 48 52 45 53 45 39 35 233 239 238 244 241 242 237 234 241 240 238 240 241 240 238 237 238 239 243 250 265
15 20 19 22 14 10 7 5 9 12 10 8 9 9 13 15 20 25 27 34 39 36 27 13 215 238 232 234 230 234 235 229 229 235 235 242 248 247 245 248 256 259 262
3 6 6 6 8 3 359 1 358 358 360 358 356 353 354 355 357 356 352 357 4 5 20 20 9 5 348 317 281 247 248 243 248 248 255 251 253 250 251 257 254 258 262
352 355 354 355 355 355 353 351 352 348 347 348 347 345 340 336 335 336 339 328 332 335 336 340 342 333 329 332 313 297 283 294 278 258 253 254 251 245 246 250 254 261 261
344 344 345 345 344 342 341 339 338 339 335 338 337 335 330 331 323 322 318 318 322 319 315 315 307 313 307 310 303 313 285 281 282 285 278 274 271 269 261 262 259 262 257
343 339 338 338 335 333 331 329 331 333 332 333 334 333 332 332 323 322 317 313 307 308 309 307 302 296 294 294 288 285 290 286 284 280 279 279 282 282 280 273 268 261 259
338 334 332 328 329 330 330 330 331 333 334 337 332 331 330 328 326 326 322 313 308 303 300 300 303 301 294 286 283 286 284 280 279 280 281 283 283 285 280 283 283 280 276
330 330 329 328 328 329 330 330 331 332 336 335 334 332 331 327 329 326 322 323 317 314 309 298 293 295 294 292 290 285 281 280 276 271 272 274 280 285 289 287 283 283 284
332 331 332 332 332 331 330 332 331 330 328 331 329 328 326 322 319 317 320 316 319 315 310 305 301 296 297 299 293 283 279 276 274 275 275 269 274 279 282 285 287 276 283
333 334 336 337 334 336 341 337 334 333 320 321 324 324 323 321 319 317 315 317 314 312 310 307 306 304 297 289 287 282 278 277 274 274 274 275 274 269 268 276 280 285 286
333 338 340 339 340 338 336 334 330 327 325 323 323 324 321 318 315 313 314 314 312 311 311 310 307 304 301 294 288 286 283 279 277 269 266 269 268 268 265 267 275 280 286
332 335 332 329 328 334 332 328 329 326 326 321 320 317 317 319 318 316 316 314 314 314 313 310 308 308 307 302 298 294 289 287 279 277 272 263 261 266 265 263 265 274 286
329 328 323 318 320 325 325 323 323 326 326 323 318 317 314 307 312 320 317 312 313 313 310 306 302 300 299 298 298 296 290 288 290 288 278 269 259 260 265 259 259 266 276
322 319 314 310 310 315 318 319 323 322 321 321 320 313 310 313 311 312 309 310 313 311 309 302 301 300 297 295 292 289 290 288 283 280 277 274 266 260 261 260 252 256 267
321 318 312 307 306 312 314 316 320 320 319 319 317 316 317 318 317 318 318 317 315 312 308 309 305 304 302 304 303 297 292 293 290 280 276 275 272 264 256 258 255 250 259
Height
1477 1475 1474 1473 1473 1475 1476 1479 1482 1486 1493 1495 1497 1502 1503 1506 1510 1514 1519 1521 1522 1523 1526 1531 1535 1536 1538 1541 1543 1545 1548 1550 1551 1554 1555 1555 1555 1554 1555 1556 1556 1556 1556
1473 1474 1473 1471 1471 1473 1472 1474 1477 1480 1484 1489 1492 1495 1500 1503 1506 1509 1513 1515 1516 1517 1519 1524 1530 1532 1534 1536 1538 1539 1542 1544 1546 1547 1550 1550 1551 1550 1547 1548 1549 1550 1552
1475 1474 1472 1469 1467 1468 1469 1470 1472 1475 1478 1482 1488 1491 1495 1498 1501 1504 1507 1508 1511 1513 1515 1518 1522 1527 1527 1529 1531 1534 1535 1539 1541 1542 1544 1545 1544 1544 1544 1543 1545 1546 1547
1478 1474 1470 1469 1467 1465 1464 1466 1468 1471 1474 1477 1481 1484 1487 1489 1493 1498 1501 1503 1505 1508 1511 1512 1514 1518 1522 1523 1526 1529 1530 1533 1535 1537 1537 1537 1539 1539 1540 1540 1539 1539 1541
1483 1478 1476 1472 1465 1463 1463 1462 1462 1466 1469 1472 1475 1478 1482 1486 1490 1493 1495 1496 1499 1500 1504 1507 1509 1511 1514 1517 1519 1522 1523 1526 1528 1531 1532 1532 1533 1534 1536 1535 1536 1535 1533
1495 1489 1486 1477 1469 1464 1461 1459 1459 1462 1466 1469 1470 1472 1476 1479 1481 1485 1488 1491 1493 1496 1496 1500 1502 1503 1505 1508 1510 1513 1516 1516 1519 1522 1525 1526 1528 1527 1527 1529 1529 1530 1529
1507 1499 1490 1483 1476 1469 1463 1458 1455 1456 1457 1462 1467 1470 1472 1474 1475 1478 1480 1482 1487 1489 1490 1491 1494 1496 1497 1499 1501 1502 1506 1507 1509 1511 1514 1517 1519 1522 1524 1524 1523 1524 1523
1510 1501 1494 1488 1483 1474 1467 1462 1458 1454 1455 1457 1457 1461 1466 1471 1473 1475 1475 1479 1480 1480 1483 1484 1485 1487 1492 1493 1494 1495 1496 1498 1500 1501 1504 1506 1507 1509 1509 1511 1515 1514 1516
1511 1504 1498 1491 1486 1479 1473 1470 1465 1461 1458 1457 1458 1457 1460 1463 1464 1463 1467 1472 1475 1477 1479 1476 1476 1480 1482 1484 1486 1487 1489 1491 1492 1492 1494 1496 1499 1502 1503 1504 1504 1503 1503
1511 1506 1500 1495 1491 1487 1483 1478 1473 1470 1467 1464 1460 1458 1459 1459 1460 1461 1463 1464 1467 1469 1470 1473 1474 1475 1475 1476 1477 1479 1482 1484 1484 1486 1486 1487 1489 1492 1492 1493 1495 1495 1495
1509 1506 1504 1499 1495 1492 1488 1485 1481 1478 1474 1471 1470 1467 1466 1466 1464 1460 1459 1459 1461 1463 1465 1465 1466 1468 1469 1469 1470 1472 1476 1476 1478 1479 1479 1479 1481 1483 1485 1484 1486 1486 1486
1511 1509 1504 1501 1497 1495 1492 1489 1485 1482 1479 1478 1477 1477 1474 1471 1466 1467 1458 1461 1457 1457 1457 1459 1460 1460 1462 1463 1463 1465 1468 1469 1470 1472 1473 1473 1475 1477 1478 1479 1479 1479 1479
1509 1506 1504 1501 1499 1498 1496 1493 1489 1485 1482 1479 1475 1473 1469 1466 1466 1464 1462 1461 1460 1459 1457 1457 1453 1453 1455 1455 1455 1458 1460 1459 1461 1462 1463 1467 1468 1469 1472 1472 1473 1473 1472
1506 1504 1502 1501 1500 1500 1499 1496 1491 1487 1484 1481 1477 1474 1471 1469 1467 1465 1464 1462 1461 1461 1457 1456 1457 1454 1454 1452 1449 1450 1453 1453 1452 1454 1458 1460 1462 1462 1463 1464 1464 1463 1465
1509 1507 1505 1503 1502 1501 1500 1496 1492 1489 1484 1481 1478 1475 1472 1469 1466 1464 1462 1464 1460 1458 1457 1456 1454 1454 1455 1454 1450 1452 1447 1449 1446 1446 1449 1452 1453 1454 1454 1454 1456 1456 1455
1512 1510 1509 1507 1505 1503 1499 1496 1494 1489 1486 1481 1477 1474 1470 1468 1466 1463 1461 1459 1457 1456 1453 1452 1453 1451 1454 1452 1453 1447 1449 1448 1446 1443 1443 1445 1444 1444 1444 1447 1448 1448 1448
1513 1511 1509 1507 1506 1503 1500 1496 1491 1488 1486 1481 1476 1474 1470 1466 1464 1459 1456 1453 1451 1449 1449 1450 1450 1449 1448 1446 1446 1447 1443 1443 1441 1442 1440 1441 1441 1439 1440 1441 1440 1439 1439
1513 1511 1509 1506 1503 1500 1497 1495 1492 1487 1483 1480 1477 1474 1468 1465 1460 1455 1454 1453 1450 1447 1446 1443 1442 1441 1442 1443 1443 1440 1439 1437 1437 1437 1436 1436 1435 1435 1435 1434 1435 1432 1432
1513 1510 1508 1505 1502 1499 1495 1491 1488 1485 1481 1477 1475 1472 1469 1465 1459 1455 1450 1448 1444 1441 1440 1440 1438 1436 1435 1435 1434 1434 1431 1430 1431 1431 1430 1429 1429 1428 1431 1428 1425 1423 1425
1511 1508 1505 1502 1499 1496 1492 1490 1487 1483 1480 1477 1474 1470 1467 1464 1461 1457 1451 1446 1442 1437 1436 1434 1432 1430 1427 1428 1429 1427 1424 1423 1424 1423 1422 1422 1421 1423 1422 1423 1417 1413 1417
1509 1506 1503 1500 1498 1495 1492 1489 1487 1484 1480 1475 1471 1469 1466 1461 1457 1452 1446 1440 1438 1434 1431 1430 1426 1424 1424 1422 1421 1420 1417 1417 1414 1411 1412 1415 1413 1411 1413 1414 1412 1413 1411
1507 1504 1502 1500 1498 1494 1491 1488 1485 1481 1477 1472 1466 1463 1461 1457 1453 1447 1441 1437 1434 1430 1425 1422 1419 1417 1416 1414 1410 1409 1409 1409 1405 1402 1400 1403 1403 1403 1405 1408 1409 1408 1405
1506 1504 1502 1500 1497 1494 1490 1486 1483 1479 1474 1471 1467 1463 1457 1453 1448 1443 1439 1436 1432 1427 1421 1418 1412 1408 1409 1406 1403 1400 1402 1400 1397 1392 1391 1391 1393 1395 1396 1400 1401 1399 1397
1505 1503 1500 1498 1495 1492 1488 1484 1479 1475 1472 1469 1465 1461 1456 1449 1444 1438 1433 1429 1425 1420 1417 1414 1409 1405 1402 1401 1397 1393 1394 1391 1387 1384 1382 1382 1381 1385 1387 1389 1390 1391 1391
1503 1501 1498 1495 1492 1488 1484 1481 1476 1472 1468 1464 1460 1456 1451 1446 1441 1437 1432 1427 1421 1417 1411 1408 1403 1397 1392 1393 1390 1387 1384 1379 1378 1376 1373 1374 1371 1373 1377 1379 1380 1385 1385
1500 1498 1495 1492 1488 1484 1480 1477 1473 1468 1464 1459 1454 1448 1443 1438 1433 1427 1421 1419 1415 1411 1405 1397 1395 1390 1387 1385 1383 1379 1375 1372 1371 1367 1364 1366 1365 1362 1367 1369 1373 1377 1377